Wind_Speed
22 22 22 23 22 22 23 23 24 23 25 24 25 27 26 26 25 25 24 24 24 24 24 24 23 23 22 21 20 20 20 20 19 19 19 20 19 18 17 16 15 14 14 14
23 23 23 23 23 24 24 25 25 25 26 25 26 26 27 28 27 26 26 25 25 25 25 25 24 24 24 23 22 21 21 21 20 20 20 21 20 19 18 17 16 16 15 15
24 23 23 24 24 25 25 26 26 27 26 26 27 26 26 27 27 26 27 27 26 26 26 26 26 25 25 24 24 23 23 22 21 22 22 22 21 20 19 18 18 18 17 16
25 25 26 24 25 26 26 26 26 27 27 26 27 27 27 27 27 27 27 27 27 27 27 27 27 26 26 26 25 25 24 24 23 23 23 23 22 21 20 19 19 19 19 18
26 27 27 25 25 25 26 27 27 28 27 27 27 27 27 27 27 28 28 28 28 28 28 27 27 27 27 27 26 26 26 25 25 24 24 24 24 23 23 21 20 19 20 19
26 27 27 25 24 25 26 27 26 27 27 27 27 27 27 27 27 28 28 28 29 28 28 27 27 27 27 27 27 26 26 26 26 26 25 25 25 25 24 23 22 21 21 20
25 26 27 25 24 25 26 26 27 27 27 28 28 28 28 28 28 28 28 28 28 28 27 27 26 26 26 25 25 26 26 26 25 25 26 26 26 26 26 25 24 23 23 22
26 26 26 25 26 26 27 27 27 27 28 28 29 29 28 28 29 29 29 28 29 28 27 26 26 26 26 25 25 25 25 25 25 26 27 27 27 27 26 26 25 24 24 23
25 26 26 27 27 27 28 29 29 29 29 29 30 30 29 29 29 29 28 28 29 28 27 26 26 26 26 26 25 25 24 24 24 25 26 27 28 28 27 27 26 26 25 24
25 25 26 27 27 27 28 29 29 29 29 30 30 31 30 30 30 29 29 28 28 28 28 27 26 26 27 26 26 25 24 24 24 24 25 25 26 28 28 27 27 26 26 25
26 25 26 26 26 27 28 29 30 30 30 30 30 30 30 29 29 29 29 28 28 28 27 26 26 27 27 26 26 25 25 24 24 24 25 25 26 27 28 27 27 26 26 25
25 25 25 25 27 28 28 28 29 29 29 29 29 29 29 29 29 28 28 28 29 28 28 27 26 27 27 27 27 26 26 25 25 25 25 25 26 26 26 28 28 28 27 26
24 25 25 26 26 27 27 27 27 28 29 29 29 30 30 29 29 28 28 28 28 28 27 27 27 27 28 28 27 27 27 27 27 26 26 26 26 26 26 26 27 28 28 28
24 25 25 25 25 26 26 27 27 27 28 28 29 29 30 29 29 29 29 29 29 28 27 27 27 28 28 28 28 28 28 28 28 28 27 27 27 27 27 27 27 27 28 29
24 25 25 25 25 26 26 27 28 28 27 27 28 29 28 28 28 29 30 30 29 28 28 27 28 28 28 29 29 29 29 29 30 30 29 29 28 28 28 27 27 28 28 29
23 24 25 25 25 26 26 27 26 26 26 26 27 28 28 28 28 29 29 29 29 28 27 27 27 27 28 29 29 29 30 30 30 30 30 30 30 29 29 29 28 28 29 29
23 23 24 25 25 26 26 25 25 25 26 26 26 27 27 27 28 28 29 29 29 29 28 27 27 28 28 29 30 31 30 31 30 30 31 31 31 32 31 31 31 30 30 30
23 23 24 25 25 25 25 25 25 25 26 26 27 27 27 27 27 28 28 28 28 27 27 27 27 28 28 29 30 31 31 30 30 30 30 30 32 33 33 32 32 31 31 31
23 24 24 24 24 25 25 25 25 26 26 27 28 28 27 27 27 27 27 27 27 27 27 27 27 28 28 29 30 30 30 30 30 31 31 31 32 32 32 32 32 32 32 31
24 24 25 24 25 25 25 25 25 26 26 27 27 27 27 27 28 27 26 27 26 26 27 27 27 28 28 28 29 29 29 29 30 30 31 31 31 31 31 32 32 33 32 32
25 25 25 25 25 25 25 25 25 25 26 26 26 26 26 26 26 26 26 26 25 26 27 27 27 27 28 28 28 29 29 30 30 30 31 32 32 32 32 32 33 33 33 33
26 26 26 26 26 24 25 25 24 25 26 26 25 25 25 25 24 24 24 24 24 25 26 26 26 26 26 27 28 28 29 29 29 30 31 32 32 33 33 33 33 33 33 33
26 26 26 26 26 24 24 24 24 25 25 25 25 25 25 24 23 23 23 23 24 24 25 25 24 24 24 25 26 27 28 29 29 29 30 30 31 32 33 33 32 32 33 32
25 26 26 26 25 25 25 24 24 25 25 25 26 26 25 25 25 24 24 24 24 24 23 23 22 22 23 24 24 24 25 26 27 27 28 28 29 29 30 30 31 31 31 32
26 26 26 26 25 25 25 25 25 26 26 26 26 26 26 26 25 24 23 23 23 23 23 22 21 22 23 23 23 22 23 24 25 25 26 26 26 27 28 29 29 30 31 31
25 25 25 25 25 25 25 26 26 26 27 26 25 25 25 25 24 24 24 23 22 22 22 21 21 21 22 22 22 22 23 23 23 24 25 25 26 26 27 27 28 29 29 30
25 25 25 25 25 25 26 26 26 26 26 25 24 25 25 24 23 23 23 22 22 21 21 21 21 21 21 21 22 22 23 23 24 24 25 25 26 26 26 27 27 28 28 29
Wind_Direction
261 262 265 267 267 268 269 269 269 270 270 271 273 275 278 280 280 281 281 280 280 281 282 281 281 280 279 277 274 271 268 266 262 259 257 258 260 261 261 261 263 263 261 261
262 263 263 267 269 269 270 271 271 271 271 271 272 275 277 278 279 280 281 281 281 280 280 280 280 279 278 277 274 270 267 266 263 259 257 257 258 258 258 257 258 260 260 260
264 266 266 267 269 270 272 272 271 271 272 272 273 274 274 276 278 279 280 281 281 280 278 277 278 277 277 275 273 270 266 265 263 260 257 255 254 255 255 255 255 255 255 257
266 267 269 273 273 272 273 272 272 273 272 272 274 275 275 276 278 279 279 280 281 280 279 278 277 276 275 275 273 269 265 263 262 260 257 253 251 251 252 254 254 254 254 255
267 268 271 272 273 273 274 274 273 273 273 273 274 274 275 277 278 278 278 279 279 279 279 278 277 275 275 275 273 269 265 263 261 258 256 253 250 249 250 253 253 254 254 253
267 269 272 275 275 275 275 275 275 275 276 275 275 275 277 278 277 277 279 279 279 279 279 278 277 276 275 273 271 269 265 262 260 258 255 252 250 249 250 251 251 252 253 252
267 269 273 276 276 276 276 278 278 278 278 278 277 277 278 278 278 278 279 279 279 279 277 277 277 276 273 272 270 268 265 262 258 257 255 252 250 250 250 251 251 252 252 251
266 269 274 276 276 275 277 279 280 280 279 278 278 278 278 278 278 278 278 278 278 278 277 276 276 274 272 271 269 267 265 263 258 255 255 252 251 251 251 251 252 251 250 250
268 271 274 276 277 278 278 280 280 279 279 279 278 278 278 277 277 277 277 278 278 277 275 275 275 272 271 270 268 265 264 261 259 258 256 254 252 251 250 250 251 249 248 249
270 273 275 276 277 278 277 278 279 279 278 278 278 278 278 278 277 277 277 278 278 277 275 274 271 269 268 268 266 264 262 260 259 258 257 256 254 251 250 250 249 248 248 248
270 273 273 275 278 279 278 278 278 278 278 278 278 278 278 278 278 277 277 277 278 278 275 272 270 268 266 266 264 262 261 260 259 258 258 257 255 253 251 249 248 250 249 248
273 274 277 279 280 280 280 280 281 281 279 278 278 279 279 279 278 277 276 276 277 277 275 272 269 267 265 264 262 260 259 259 259 258 258 257 255 253 251 248 248 250 249 248
273 275 279 281 282 282 282 283 282 281 280 279 279 279 279 279 278 277 276 275 276 276 276 273 270 267 264 263 262 260 259 259 258 257 257 256 255 252 250 250 251 250 248 248
273 277 279 280 281 283 284 285 285 285 283 282 281 280 280 279 278 277 277 276 275 275 274 273 270 268 265 263 261 261 259 259 258 256 255 254 253 252 251 253 253 252 251 250
274 276 279 281 282 284 285 285 287 286 284 283 282 282 282 281 279 279 277 276 275 275 274 272 268 266 264 263 261 261 260 259 257 255 253 252 251 251 252 253 254 254 253 251
276 276 278 281 282 284 286 287 288 287 285 285 284 284 284 282 281 280 278 276 276 276 274 271 267 266 264 262 261 261 260 259 258 255 252 252 251 250 252 252 254 254 254 254
280 281 281 282 284 285 286 288 287 286 286 286 286 286 286 284 282 280 279 279 278 277 275 271 268 266 265 263 262 261 260 259 257 254 254 253 252 250 251 252 254 256 256 257
282 284 285 287 287 287 287 287 287 287 287 288 288 288 287 286 285 283 281 280 277 275 275 272 270 268 267 265 262 260 260 258 257 255 255 253 251 251 252 253 255 257 259 259
283 284 285 287 287 287 287 287 288 289 289 289 289 290 289 287 285 284 284 283 279 276 275 272 271 270 269 266 263 260 258 257 257 256 255 253 253 253 253 253 254 257 259 259
283 285 286 286 285 286 287 287 288 289 288 289 291 292 290 288 286 284 284 284 281 276 275 273 272 271 270 268 265 261 258 258 258 256 254 253 254 254 254 254 254 257 258 258
284 286 287 287 286 286 287 288 288 289 290 292 293 293 291 289 288 286 285 283 281 278 275 274 272 270 269 267 264 261 260 259 258 257 255 255 255 256 256 256 257 258 257 257
283 285 287 288 288 288 288 288 288 289 290 292 293 292 291 290 291 289 286 285 285 280 277 276 275 273 270 267 264 262 261 259 258 258 258 257 257 257 257 257 258 257 256 255
283 285 286 287 288 288 288 288 288 289 290 292 294 293 291 290 291 290 286 286 286 283 280 279 278 276 273 270 266 264 262 261 260 260 260 258 258 258 258 258 257 256 256 256
283 284 286 287 287 288 288 288 289 290 292 294 294 292 291 289 290 289 287 287 287 285 284 280 277 275 275 273 270 266 263 262 260 260 261 260 259 258 258 257 257 257 257 257
283 285 286 286 287 288 288 289 290 292 292 293 293 291 290 289 289 288 289 289 286 283 283 281 276 274 275 275 270 267 266 265 263 261 260 259 259 259 259 258 257 257 257 258
284 284 286 287 288 289 289 289 290 291 292 293 293 292 291 291 290 289 289 289 286 283 282 279 274 274 274 272 270 268 268 266 264 262 261 260 260 260 259 258 258 258 258 259
285 286 286 287 287 287 288 288 289 290 292 292 292 292 292 292 291 291 289 287 285 284 282 279 275 272 272 272 271 271 270 268 267 266 263 261 261 261 260 260 260 261 261 261
Height
5803 5804 5804 5805 5806 5807 5807 5808 5808 5809 5808 5808 5806 5805 5804 5803 5803 5803 5802 5802 5801 5801 5800 5800 5799 5799 5798 5798 5797 5797 5798 5798 5799 5800 5802 5803 5804 5805 5807 5808 5809 5810 5811 5812
5797 5798 5798 5799 5800 5800 5801 5801 5801 5801 5802 5801 5799 5799 5798 5797 5796 5796 5795 5795 5795 5794 5793 5793 5792 5792 5792 5791 5791 5791 5791 5792 5793 5794 5796 5797 5798 5800 5801 5803 5804 5806 5807 5808
5791 5791 5791 5793 5794 5794 5794 5794 5794 5794 5795 5793 5792 5792 5791 5790 5790 5789 5788 5787 5787 5786 5786 5786 5785 5785 5784 5784 5784 5784 5785 5786 5787 5788 5789 5791 5792 5794 5796 5797 5799 5801 5802 5803
5783 5784 5784 5788 5787 5787 5787 5786 5786 5786 5786 5786 5785 5785 5783 5783 5782 5781 5781 5780 5779 5779 5778 5778 5777 5777 5777 5777 5777 5777 5777 5778 5780 5781 5782 5784 5786 5788 5790 5791 5793 5795 5797 5798
5776 5776 5777 5780 5779 5779 5779 5779 5779 5778 5778 5778 5777 5777 5776 5775 5774 5773 5773 5772 5771 5771 5770 5769 5769 5768 5768 5768 5768 5769 5769 5770 5772 5773 5775 5777 5779 5781 5784 5785 5787 5789 5791 5792
5769 5769 5769 5773 5772 5771 5772 5771 5771 5770 5770 5770 5769 5769 5769 5767 5766 5765 5764 5764 5763 5762 5761 5761 5761 5760 5760 5760 5760 5760 5761 5762 5763 5765 5767 5769 5772 5774 5776 5779 5781 5783 5785 5786
5762 5762 5762 5765 5764 5764 5765 5765 5763 5762 5762 5761 5760 5760 5760 5759 5758 5757 5756 5755 5754 5754 5753 5753 5752 5752 5751 5751 5752 5752 5752 5754 5755 5757 5759 5761 5764 5766 5769 5771 5774 5776 5778 5780
5755 5755 5758 5757 5757 5757 5757 5756 5755 5754 5754 5753 5752 5751 5751 5750 5749 5748 5747 5746 5745 5745 5745 5744 5744 5743 5743 5743 5744 5744 5744 5745 5747 5749 5750 5753 5755 5758 5760 5763 5766 5769 5771 5773
5749 5751 5750 5749 5749 5749 5748 5747 5747 5746 5745 5744 5743 5742 5742 5741 5740 5739 5738 5738 5737 5736 5736 5736 5735 5735 5735 5735 5735 5736 5737 5737 5739 5741 5742 5744 5747 5749 5752 5755 5758 5760 5763 5766
5742 5742 5742 5742 5741 5741 5740 5739 5738 5737 5736 5735 5734 5733 5732 5732 5731 5730 5730 5729 5728 5727 5727 5727 5727 5727 5727 5727 5727 5728 5729 5730 5732 5733 5735 5736 5739 5741 5744 5746 5749 5752 5755 5758
5734 5735 5735 5734 5733 5732 5731 5730 5729 5728 5727 5726 5725 5724 5723 5723 5722 5721 5720 5720 5719 5718 5718 5718 5718 5718 5718 5719 5719 5720 5722 5723 5724 5726 5728 5729 5731 5733 5736 5738 5741 5744 5747 5750
5727 5727 5727 5727 5725 5724 5723 5722 5720 5719 5718 5717 5716 5715 5714 5713 5713 5712 5711 5711 5710 5709 5709 5709 5709 5709 5710 5710 5711 5712 5714 5715 5717 5719 5720 5722 5724 5726 5728 5731 5733 5736 5739 5741
5719 5719 5719 5718 5717 5716 5715 5713 5712 5710 5709 5708 5707 5706 5705 5704 5703 5702 5702 5701 5701 5700 5699 5699 5699 5700 5701 5702 5703 5704 5706 5707 5709 5710 5712 5714 5716 5718 5721 5723 5725 5728 5730 5733
5712 5712 5711 5711 5710 5708 5707 5705 5704 5702 5701 5699 5698 5697 5695 5695 5694 5694 5693 5692 5691 5690 5690 5690 5690 5691 5691 5692 5694 5695 5697 5698 5700 5702 5704 5706 5708 5711 5713 5715 5717 5719 5722 5724
5705 5705 5704 5703 5702 5700 5699 5697 5696 5694 5693 5691 5689 5688 5687 5686 5685 5685 5683 5682 5682 5681 5681 5680 5681 5681 5682 5683 5684 5686 5688 5689 5691 5693 5695 5697 5700 5702 5704 5706 5709 5711 5713 5716
5698 5698 5697 5695 5694 5693 5691 5690 5688 5686 5685 5683 5682 5680 5679 5677 5676 5675 5674 5673 5672 5672 5671 5671 5671 5672 5672 5673 5675 5676 5678 5679 5681 5684 5686 5688 5690 5693 5696 5698 5700 5702 5704 5706
5691 5691 5690 5688 5687 5685 5684 5682 5680 5678 5677 5676 5674 5672 5670 5669 5668 5666 5665 5664 5663 5663 5662 5662 5662 5662 5663 5663 5664 5666 5668 5670 5672 5674 5676 5679 5681 5684 5687 5689 5692 5694 5696 5697
5684 5683 5682 5680 5679 5677 5676 5674 5672 5671 5669 5668 5666 5664 5662 5661 5659 5658 5657 5655 5654 5654 5653 5653 5653 5653 5653 5654 5655 5656 5658 5660 5662 5664 5667 5669 5672 5675 5677 5680 5682 5684 5686 5687
5677 5676 5675 5673 5671 5670 5668 5667 5665 5663 5662 5660 5658 5656 5654 5653 5651 5650 5648 5647 5646 5645 5645 5644 5644 5644 5644 5644 5645 5646 5648 5650 5652 5654 5656 5659 5662 5665 5667 5670 5672 5674 5676 5677
5670 5669 5667 5666 5664 5662 5661 5659 5658 5656 5654 5652 5650 5648 5647 5645 5643 5641 5640 5638 5637 5636 5636 5635 5635 5635 5635 5635 5635 5637 5639 5641 5643 5645 5647 5650 5652 5655 5657 5659 5661 5663 5665 5667
5663 5661 5660 5658 5657 5655 5654 5652 5650 5649 5647 5645 5643 5641 5639 5637 5635 5633 5632 5631 5629 5628 5627 5626 5626 5626 5626 5626 5627 5628 5630 5631 5633 5635 5637 5640 5642 5644 5647 5649 5651 5653 5654 5656
5655 5654 5652 5651 5650 5648 5646 5645 5643 5642 5640 5638 5635 5633 5631 5630 5628 5626 5624 5623 5621 5620 5619 5618 5618 5617 5617 5617 5618 5619 5620 5622 5623 5625 5627 5630 5632 5634 5636 5638 5640 5642 5644 5645
5647 5646 5645 5643 5642 5641 5639 5638 5636 5634 5632 5631 5628 5626 5624 5622 5621 5619 5617 5616 5614 5612 5611 5610 5609 5609 5609 5609 5609 5610 5611 5612 5614 5616 5617 5619 5621 5623 5625 5627 5629 5631 5633 5634
5640 5639 5637 5636 5635 5634 5632 5631 5629 5627 5625 5624 5621 5619 5617 5615 5614 5612 5610 5608 5607 5605 5604 5603 5602 5602 5601 5601 5601 5602 5602 5603 5605 5606 5608 5610 5611 5613 5614 5616 5618 5620 5622 5624
5633 5631 5630 5629 5628 5627 5625 5623 5622 5620 5618 5616 5614 5612 5610 5608 5607 5605 5603 5601 5600 5598 5597 5596 5595 5595 5594 5594 5594 5594 5595 5596 5597 5598 5599 5601 5602 5603 5604 5606 5607 5609 5611 5613
5625 5624 5623 5621 5620 5619 5618 5616 5614 5613 5611 5609 5607 5605 5603 5601 5599 5598 5596 5594 5592 5591 5590 5589 5589 5588 5588 5587 5587 5588 5588 5589 5589 5590 5591 5592 5593 5594 5595 5596 5598 5599 5601 5602
5618 5617 5615 5614 5613 5612 5610 5609 5607 5605 5604 5602 5600 5598 5596 5594 5593 5591 5589 5587 5586 5585 5584 5583 5582 5582 5581 5581 5581 5581 5581 5581 5582 5583 5583 5584 5585 5586 5587 5588 5589 5590 5591 5592